Pontiac, MI

5:10 AM EDT on May 23, 2017 (GMT -0400)
Oakland County International

Weather History for KPTK - March, 2013

Change the Weather History Date:

Tuesday, March 5, 2013

  Actual Average Record
Temperature  
Mean Temperature 24 °F -  
Max Temperature 34 °F 34 °F 64 °F (2004)
Min Temperature 15 °F 19 °F 1 °F (2015)
Degree Days  
Heating Degree Days 40    
Moisture  
Dew Point 19 °F    
Average Humidity 75    
Maximum Humidity 88    
Minimum Humidity 59    
Precipitation  
Precipitation 0.00 in - - ()
Snow  
Snow 0.00 in - - ()
Snow Depth 2.00 in    
Sea Level Pressure  
Sea Level Pressure 29.98 in    
Wind  
Wind Speed 7 mph (ENE)    
Max Wind Speed 18 mph    
Max Gust Speed 23 mph    
Visibility 10 miles    
Events      
Averages and records for this station are not official NWS values.
T = Trace of Precipitation, MM = Missing Value Source: NWS Daily Summary

Daily Weather History Graph

Daily Weather History Graph

Search for Another Location

Airport or City:

Trip Planner

Search our weather history database for the weather conditions in past years. The results will help you decide how hot, cold, wet, or windy it might be!

Date:

Astronomy

Mar. 05, 2013 Rise Set
Actual Time 7:02 AM EST 6:28 PM EST
Civil Twilight 6:34 AM EST 6:56 PM EST
Nautical Twilight 6:01 AM EST 7:29 PM EST
Astronomical Twilight 5:28 AM EST 8:02 PM EST
Moon 2:19 AM EST (3/5) 12:00 PM EST (3/5)
Length of Visible Light 12h 22m
Length of Day
11h 26m
Last Quarter, 41% of the Moon is Illuminated
Mar 5
Last Quarter
Mar 11
New
Mar 19
First Quarter
Mar 27
Full
Apr 3
Last Quarter

Hourly Weather History & Observations

Time (EST) Temp. Windchill Dew Point Humidity Pressure Visibility Wind Dir Wind Speed Gust Speed Precip Events Conditions
12:53 AM 19.0 °F - 12.9 °F 77% 30.14 in 10.0 mi Calm Calm - N/A   Clear
2:53 AM 17.1 °F - 14.0 °F 88% 30.13 in 10.0 mi Calm Calm - N/A   Clear
3:53 AM 15.8 °F 8.6 °F 12.2 °F 86% 30.07 in 10.0 mi ENE 4.6 mph - N/A   Clear
4:53 AM 18.0 °F 9.8 °F 15.1 °F 88% 30.10 in 10.0 mi ENE 5.8 mph - N/A   Mostly Cloudy
5:53 AM 21.0 °F 14.6 °F 18.0 °F 88% 30.09 in 10.0 mi East 4.6 mph - N/A   Mostly Cloudy
6:53 AM 23.0 °F 12.4 °F 17.6 °F 80% 30.04 in 10.0 mi East 10.4 mph - N/A   Overcast
7:41 AM 23.0 °F 14.7 °F 17.6 °F 80% 30.03 in 10.0 mi East 6.9 mph - N/A   Scattered Clouds
7:53 AM 23.0 °F 15.8 °F 17.6 °F 80% 30.03 in 10.0 mi East 5.8 mph - N/A   Scattered Clouds
8:53 AM 25.0 °F 15.5 °F 18.0 °F 75% 30.07 in 10.0 mi East 9.2 mph - N/A   Scattered Clouds
9:53 AM 27.0 °F 16.7 °F 18.0 °F 69% 30.05 in 10.0 mi ESE 11.5 mph - N/A   Scattered Clouds
10:53 AM 28.0 °F 20.0 °F 19.0 °F 69% 30.04 in 10.0 mi East 8.1 mph - N/A   Scattered Clouds
11:53 AM 30.9 °F 22.2 °F 19.0 °F 61% 30.02 in 10.0 mi ESE 10.4 mph - N/A   Scattered Clouds
12:53 PM 32.0 °F 23.0 °F 19.9 °F 61% 29.99 in 10.0 mi ESE 11.5 mph - N/A   Scattered Clouds
1:53 PM 33.1 °F 23.9 °F 19.9 °F 59% 29.95 in 10.0 mi East 12.7 mph 18.4 mph N/A   Mostly Cloudy
2:53 PM 33.1 °F 23.0 °F 21.0 °F 61% 29.92 in 10.0 mi ENE 15.0 mph 18.4 mph N/A   Mostly Cloudy
3:53 PM 34.0 °F 23.0 °F 21.9 °F 61% 29.89 in 10.0 mi ENE 18.4 mph 23.0 mph N/A   Scattered Clouds
4:53 PM 32.0 °F 21.6 °F 21.9 °F 66% 29.87 in 10.0 mi NE 15.0 mph - N/A   Mostly Cloudy
5:53 PM 30.0 °F 20.5 °F 21.9 °F 72% 29.87 in 10.0 mi ENE 11.5 mph - N/A   Overcast
6:53 PM 28.9 °F 18.2 °F 21.0 °F 72% 29.88 in 10.0 mi NE 13.8 mph - N/A   Overcast
7:53 PM 27.0 °F 16.7 °F 21.0 °F 78% 29.89 in 10.0 mi NE 11.5 mph - N/A   Overcast
8:53 PM 26.1 °F 15.6 °F 21.0 °F 81% 29.87 in 10.0 mi NE 11.5 mph - N/A   Overcast
9:53 PM 26.1 °F 16.2 °F 21.0 °F 81% 29.87 in 10.0 mi NNE 10.4 mph - N/A   Overcast
10:53 PM 26.1 °F 16.2 °F 21.0 °F 81% 29.88 in 10.0 mi NNE 10.4 mph - N/A   Overcast
11:53 PM 25.0 °F 14.2 °F 21.0 °F 85% 29.87 in 10.0 mi NNE 11.5 mph - N/A   Overcast